User: anonymous   Login
Location: Deer Lake
(49.1830°N, 57.4330°W)
Time: 14:32:32
(UTC-03:-30)
Language:

NOSS 3-1 (C) - Orbit

View from above orbital plane
View from above orbital plane
View from above satellite
View from above satellite

Ground track
Ground track

The orbit data is extracted from the following two-line orbital elements,

1 26907U 01040C   18010.77110217 0.00000030  00000-0  34359-4 0    09
2 26907  63.4098 218.1741 0391000 359.1277   0.8723 13.41277738    00
Epoch (UTC): 10 January 2018 18:30:23
Eccentricity: 0.0391000
inclination: 63.4098°
perigee height: 812 km
apogee height: 1397 km
right ascension of ascending node: 218.1741°
argument of perigee: 359.1277°
revolutions per day: 13.41277738
mean anomaly at epoch: 0.8723°
orbit number at epoch: 0

The dashed part of the orbit path shows where the satellite is in the earth's shadow,  

DLR